Bloomington, IN

7:09 AM EST on December 10, 2016 (GMT -0500)
Monroe County

Weather History for KBMG - May, 2013

Change the Weather History Date:

Thursday, May 9, 2013

  Actual Average Record
Temperature  
Mean Temperature 66 °F 60 °F  
Max Temperature 79 °F 72 °F 84 °F (2004)
Min Temperature 53 °F 49 °F 44 °F (1999)
Degree Days  
Heating Degree Days 0 6  
Month to date heating degree days 24 58  
Since 1 July heating degree days 5212 5172  
Cooling Degree Days 1 1  
Month to date cooling degree days 9 9  
Year to date cooling degree days 21 28  
Growing Degree Days 17 (Base 50)    
Moisture  
Dew Point 60 °F    
Average Humidity 70    
Maximum Humidity 100    
Minimum Humidity 39    
Precipitation  
Precipitation 0.58 in 0.17 in 0.82 in (2000)
Month to date precipitation 2.11 1.61  
Year to date precipitation 17.51 16.26  
Sea Level Pressure  
Sea Level Pressure 29.96 in    
Wind  
Wind Speed 5 mph (South)    
Max Wind Speed 17 mph    
Max Gust Speed 25 mph    
Visibility 8 miles    
Events Rain , Thunderstorm    
T = Trace of Precipitation, MM = Missing Value Source: NWS Daily Summary

Daily Weather History Graph

Daily Weather History Graph

Search for Another Location

Airport or City:

Trip Planner

Search our weather history database for the weather conditions in past years. The results will help you decide how hot, cold, wet, or windy it might be!

Date:

Astronomy

May. 09, 2013 Rise Set
Actual Time 6:38 AM EDT 8:47 PM EDT
Civil Twilight 6:09 AM EDT 9:17 PM EDT
Nautical Twilight 5:33 AM EDT 9:53 PM EDT
Astronomical Twilight 4:53 AM EDT 10:33 PM EDT
Moon 6:22 AM EDT (5/9) 8:42 PM EDT (5/9)
Length of Visible Light 15h 07m
Length of Day
14h 08m
Waning Crescent, 0% of the Moon is Illuminated
May 9
Waning Crescent
May 9
New
May 18
First Quarter
May 25
Full
May 31
Last Quarter

Hourly Weather History & Observations

Time (EDT) Temp. Dew Point Humidity Pressure Visibility Wind Dir Wind Speed Gust Speed Precip Events Conditions
12:53 AM 57.9 °F 57.0 °F 97% 29.99 in 10.0 mi Calm Calm - N/A   Overcast
1:53 AM 60.1 °F 59.0 °F 96% 29.98 in 10.0 mi SE 3.5 mph - N/A   Mostly Cloudy
2:53 AM 57.0 °F 55.9 °F 96% 29.98 in 10.0 mi Calm Calm - N/A   Clear
3:53 AM 59.0 °F 57.0 °F 93% 29.98 in 10.0 mi Calm Calm - N/A   Overcast
4:53 AM 55.9 °F 55.9 °F 100% 29.98 in 10.0 mi Calm Calm - N/A   Partly Cloudy
5:53 AM 55.0 °F 53.1 °F 93% 29.98 in 10.0 mi Calm Calm - N/A   Clear
6:53 AM 55.9 °F 55.0 °F 97% 29.99 in 10.0 mi Calm Calm - N/A   Clear
7:53 AM 57.0 °F 57.0 °F 100% 30.00 in 9.0 mi Calm Calm - N/A   Clear
8:53 AM 64.0 °F 57.9 °F 80% 30.00 in 10.0 mi Calm Calm - N/A   Clear
9:53 AM 70.0 °F 55.0 °F 59% 30.01 in 10.0 mi WSW 8.1 mph - N/A   Partly Cloudy
10:53 AM 73.9 °F 55.0 °F 52% 30.00 in 10.0 mi Variable 5.8 mph - N/A   Clear
11:53 AM 77.0 °F 54.0 °F 45% 30.00 in 10.0 mi SSW 5.8 mph - N/A   Clear
1:53 PM 79.0 °F 51.1 °F 38% 29.98 in 10.0 mi SW 10.4 mph 17.3 mph N/A   Mostly Cloudy
2:53 PM 77.0 °F 52.0 °F 42% 29.97 in 10.0 mi South 4.6 mph - N/A   Mostly Cloudy
4:13 PM 66.2 °F 57.2 °F 73% 29.97 in 10.0 mi Calm Calm - 0.01 in Rain , Thunderstorm Light Thunderstorms and Rain
4:53 PM 66.0 °F 62.1 °F 87% 29.99 in 7.0 mi WSW 5.8 mph - 0.02 in Rain , Thunderstorm Light Thunderstorms and Rain
5:03 PM 64.4 °F 62.6 °F 94% 29.99 in 2.0 mi WSW 9.2 mph 19.6 mph 0.06 in Rain , Thunderstorm Thunderstorms and Rain
5:18 PM 62.6 °F 60.8 °F 94% 29.98 in 5.0 mi Calm Calm - 0.11 in Rain , Thunderstorm Light Thunderstorms and Rain
5:41 PM 64.4 °F 64.4 °F 100% 29.96 in 10.0 mi East 5.8 mph - 0.11 in Rain Light Rain
5:53 PM 66.0 °F 64.0 °F 93% 29.94 in 10.0 mi NE 3.5 mph - 0.11 in   Mostly Cloudy
6:53 PM 66.9 °F 64.9 °F 93% 29.92 in 10.0 mi ESE 4.6 mph - N/A   Partly Cloudy
7:53 PM 66.0 °F 64.0 °F 93% 29.90 in 10.0 mi SE 6.9 mph - 0.00 in Rain Light Rain
8:02 PM 66.2 °F 64.4 °F 94% 29.94 in 6.0 mi South 4.6 mph - 0.03 in Rain , Thunderstorm Light Thunderstorms and Rain
8:31 PM 66.2 °F 62.6 °F 88% 29.91 in 10.0 mi SE 6.9 mph - 0.07 in   Mostly Cloudy
8:53 PM 64.9 °F 64.9 °F 100% 29.88 in 10.0 mi ESE 8.1 mph - 0.07 in   Mostly Cloudy
9:53 PM 64.0 °F 61.0 °F 90% 29.91 in 5.0 mi West 9.2 mph - 0.04 in Rain , Thunderstorm Thunderstorms and Rain
10:19 PM 64.4 °F 64.4 °F 100% 29.93 in 3.0 mi SW 6.9 mph 20.7 mph 0.16 in Rain , Thunderstorm Heavy Thunderstorms and Rain
10:23 PM 64.4 °F 62.6 °F 94% 29.93 in 1.5 mi SW 4.6 mph - 0.28 in Rain , Thunderstorm Heavy Thunderstorms and Rain
10:34 PM 64.4 °F 64.4 °F 100% 29.93 in 4.0 mi WSW 5.8 mph 16.1 mph 0.33 in Rain , Thunderstorm Light Thunderstorms and Rain
10:53 PM 66.0 °F 62.1 °F 87% 29.91 in 10.0 mi SSW 8.1 mph - 0.34 in Thunderstorm Mostly Cloudy
11:11 PM 64.4 °F 62.6 °F 94% 29.92 in 10.0 mi SSW 8.1 mph - N/A   Partly Cloudy
11:53 PM 63.0 °F 62.1 °F 97% 29.90 in 10.0 mi SSW 5.8 mph - N/A   Clear